Regional Weather Roundup
Issued by NWS Jackson, KY

Home | Current Version | Previous Version | Graphics & Text | Print | Product List | Glossary On
Versions: 1 2 3 4 5 6 7 8 9 10 11 12 13 14 15 16 17 18 19 20 21 22 23 24 25 26 27 28 29 30 31 32 33 34 35 36 37 38 39 40 41 42 43 44 45 46 47 48 49 50
112
ASUS43 KJKL 251210
RWRJKL

EAST KENTUCKY HOURLY WEATHER ROUNDUP
NATIONAL WEATHER SERVICE JACKSON KY
800 AM EDT SUN SEP 25 2016

NOTE: "FAIR" INDICATES FEW OR NO CLOUDS BELOW 12,000 FEET WITH
NO SIGNIFICANT WEATHER AND/OR OBSTRUCTIONS TO VISIBILITY.

* THESE REPORTS ARE NOT UNDER NWS QUALITY CONTROL AND MAY NOT
  REPORT WEATHER SUCH AS PRECIPITATION AND FOG.

KYZ079-080-083-085-087-088-110-112-115-119-120-251300
...EASTERN KENTUCKY...

CITY           SKY/WX    TMP DP  RH WIND       PRES   REMARKS
JACKSON        CLEAR     66  63  90 CALM      30.14S
6HR MIN TEMP:  65; 6HR MAX TEMP:  71;

LONDON         FOG       62  60  93 S5        30.14R VSB 3/4
6HR MIN TEMP:  62; 6HR MAX TEMP:  67;

SOMERSET*      PTCLDY    61  61 100 CALM      30.14R FOG
MONTICELLO*    CLEAR     61  61 100 W9        30.14R FOG
6HR MIN TEMP:  59; 6HR MAX TEMP:  64;

WILLIAMSBURG*  SUNNY     61  61 100 CALM      30.14S VSB 1
MIDDLESBORO*   FOG       62  62 100 CALM      30.17R VSB 1/4
6HR MIN TEMP:  61; 6HR MAX TEMP:  63;

HARLAN APT*    CLOUDY    63  61  94 CALM      30.17R VSB 1/2
PIKE CO APT*   FOG       64  64 100 CALM      30.15S VSB 1/2
BIG SANDY APT* SUNNY     64  64 100 CALM      30.15S FOG
6HR MIN TEMP:  63; 6HR MAX TEMP:  70;

MOREHEAD APT*  SUNNY     64  59  82 CALM      30.15S
ASHLAND*       CLEAR     63  59  88 CALM      30.14R
$$

KYZ035-036-041-042-044-050-067-078-099-251300
...CENTRAL KENTUCKY...

CITY           SKY/WX    TMP DP  RH WIND       PRES   REMARKS
MT STERLING*   CLEAR     64  63  94 CALM      30.15R
FLEMING/MASON* CLEAR     61  59  92 NE5       30.16R
DANVILLE*        N/A     63  63 100 CALM      30.13S FOG
LEXINGTON      CLEAR     68  63  84 E5        30.13R
6HR MIN TEMP:  67; 6HR MAX TEMP:  73;

FRANKFORT      CLEAR     67  62  84 CALM      30.12R
6HR MIN TEMP:  67; 6HR MAX TEMP:  73;

LOUISVILLE     CLEAR     70  66  87 CALM      30.11R FOG
6HR MIN TEMP:  70; 6HR MAX TEMP:  75;

LEBANON*         N/A     66  64  94 CALM      30.12R FOG
GLASGOW*       FOG      N/A N/A N/A CALM      30.11R VSB 1/4
BOWLING GREEN  FOG       65  64  97 CALM      30.10S VSB<1/4
6HR MIN TEMP:  64; 6HR MAX TEMP:  69;

$$

KYZ091>093-OHZ055-061-077-WVZ005-015-034-035-042-251300
...SOUTHERN OHIO/WEST VIRGINIA...

CITY           SKY/WX    TMP DP  RH WIND       PRES   REMARKS
COVINGTON      CLEAR     63  59  87 E5        30.15R
COLUMBUS       CLEAR     56  51  84 NE6       30.17R
DAYTON         PTCLDY    57  53  86 CALM      30.18R
WILMINGTON     CLEAR     56  54  93 CALM      30.16R
HUNTINGTON     CLEAR     64  60  87 NE3       30.14R
CHARLESTON     FOG       62  61  96 CALM      30.15R VSB 1/4
PINEVILLE*     CLOUDY    61  58  90 MISG      30.22S FOG
BECKLEY        CLEAR     61  58  90 CALM      30.21R FOG
BLUEFIELD      CLEAR     62  59  90 CALM      30.23R
LOGAN CO APT*    N/A     66  64  94 CALM      30.15S FOG
$$

VAZ002-007-008-TNZ017-027-036-066-071-251300
...SOUTHWEST VIRGINIA/EAST TENNESSEE...

CITY           SKY/WX    TMP DP  RH WIND       PRES   REMARKS
WISE*          CLEAR     63  61  94 CALM      30.22R
JONESVILLE*      N/A     59  59 100 CALM      30.18R
ABINGDON*      CLEAR     65  62  90 E6        30.18R
BRISTOL        CLEAR     61  60  97 CALM      30.16R FOG
MORRISTOWN*    SUNNY     66  64  94 CALM      30.13R
SEVIERVILLE*   SUNNY     61  61 100 CALM      30.13R
KNOXVILLE      PTCLDY    66  62  87 CALM      30.12R
OAK RIDGE      CLEAR     67  64  90 CALM      30.13R
CROSSVILLE     CLEAR     61  60  97 CALM      30.17R
NASHVILLE      CLEAR     64  62  93 S3        30.10R FOG
$$

...KEY TO REMARKS...
VSB - VISIBILITY IN MILES
WCI - WIND CHILL INDEX
HX  - HEAT INDEX

$$




USA.gov is the U.S. government's official web portal to all federal, state and local government web resources and services.